Time,TemperatureF,DewpointF,PressureIn,WindDirection,WindDirectionDegrees,WindSpeedMPH,WindSpeedGustMPH,Humidity,HourlyPrecipIn,Conditions,Clouds,dailyrainin,SoftwareType,DateUTC
2013-08-02 00:01:00,72.7,68.9,30.03,SW,225,0.0,0.0,88,0.00,,,0.00,WUHU216HW,2013-08-02 04:01:00,
2013-08-02 00:02:00,72.7,68.9,30.03,SW,225,0.0,0.0,88,0.00,,,0.00,WUHU216HW,2013-08-02 04:02:00,
2013-08-02 00:07:00,72.5,68.8,30.04,WSW,248,0.0,0.0,88,0.00,,,0.00,WUHU216HW,2013-08-02 04:07:00,
2013-08-02 00:12:00,72.4,68.6,30.04,SW,225,0.0,0.0,88,0.00,,,0.00,WUHU216HW,2013-08-02 04:12:00,
2013-08-02 00:16:00,72.2,68.4,30.05,WSW,248,0.0,0.0,88,0.00,,,0.00,WUHU216HW,2013-08-02 04:16:00,
2013-08-02 00:21:00,72.2,68.4,30.04,NNE,23,0.0,0.0,88,0.00,,,0.00,WUHU216HW,2013-08-02 04:21:00,
2013-08-02 00:27:00,72.2,68.4,30.04,SW,225,0.0,0.0,88,0.00,,,0.00,WUHU216HW,2013-08-02 04:27:00,
2013-08-02 00:32:00,72.0,68.2,30.04,SW,225,0.0,0.0,88,0.00,,,0.00,WUHU216HW,2013-08-02 04:32:00,
2013-08-02 00:37:00,71.8,68.4,30.04,WSW,248,0.0,0.0,89,0.00,,,0.00,WUHU216HW,2013-08-02 04:37:00,
2013-08-02 00:42:00,71.8,68.4,30.04,WSW,248,0.0,0.0,89,0.00,,,0.00,WUHU216HW,2013-08-02 04:42:00,
2013-08-02 00:47:00,71.8,68.4,30.04,NW,315,0.0,0.0,89,0.00,,,0.00,WUHU216HW,2013-08-02 04:47:00,
2013-08-02 00:52:00,71.8,68.4,30.05,WSW,248,0.0,0.0,89,0.00,,,0.00,WUHU216HW,2013-08-02 04:52:00,
2013-08-02 00:57:00,71.6,68.2,30.04,NW,315,0.0,0.0,89,0.00,,,0.00,WUHU216HW,2013-08-02 04:57:00,
2013-08-02 01:02:00,71.6,68.2,30.04,NW,315,0.0,0.0,89,0.00,,,0.00,WUHU216HW,2013-08-02 05:02:00,
2013-08-02 01:07:00,71.6,68.2,30.04,SW,225,0.0,0.0,89,0.00,,,0.00,WUHU216HW,2013-08-02 05:07:00,
2013-08-02 01:12:00,71.5,68.0,30.04,SW,225,0.0,0.0,89,0.00,,,0.00,WUHU216HW,2013-08-02 05:12:00,
2013-08-02 01:17:00,71.3,67.9,30.04,SW,225,0.0,0.0,89,0.00,,,0.00,WUHU216HW,2013-08-02 05:17:00,
2013-08-02 01:23:00,70.9,67.5,30.04,SW,225,0.0,0.0,89,0.00,,,0.00,WUHU216HW,2013-08-02 05:23:00,
2013-08-02 01:28:00,70.9,67.5,30.03,NW,315,0.0,0.0,89,0.00,,,0.00,WUHU216HW,2013-08-02 05:28:00,
2013-08-02 01:33:00,70.9,67.5,30.03,NNE,23,0.0,0.0,89,0.00,,,0.00,WUHU216HW,2013-08-02 05:33:00,
2013-08-02 01:38:00,70.9,67.9,30.03,North,0,0.0,0.0,90,0.00,,,0.00,WUHU216HW,2013-08-02 05:38:00,
2013-08-02 01:43:00,70.9,67.9,30.03,NE,45,0.0,0.0,90,0.00,,,0.00,WUHU216HW,2013-08-02 05:43:00,
2013-08-02 01:48:00,70.7,67.7,30.03,NE,45,0.0,0.0,90,0.00,,,0.00,WUHU216HW,2013-08-02 05:48:00,
2013-08-02 01:53:00,70.6,67.5,30.03,NE,45,0.0,0.0,90,0.00,,,0.00,WUHU216HW,2013-08-02 05:53:00,
2013-08-02 01:58:00,70.6,67.5,30.03,NE,45,0.0,0.0,90,0.00,,,0.00,WUHU216HW,2013-08-02 05:58:00,
2013-08-02 02:03:00,70.6,67.5,30.02,NNW,338,0.0,0.0,90,0.00,,,0.00,WUHU216HW,2013-08-02 06:03:00,
2013-08-02 02:08:00,70.6,67.5,30.02,NNE,23,0.0,0.0,90,0.00,,,0.00,WUHU216HW,2013-08-02 06:08:00,
2013-08-02 02:13:00,70.6,67.5,30.02,North,0,0.0,0.0,90,0.00,,,0.00,WUHU216HW,2013-08-02 06:13:00,
2013-08-02 02:18:00,70.6,67.5,30.01,NNE,23,0.0,0.0,90,0.00,,,0.00,WUHU216HW,2013-08-02 06:18:00,
2013-08-02 02:23:00,70.6,67.8,30.01,NNE,23,0.0,0.0,91,0.00,,,0.00,WUHU216HW,2013-08-02 06:23:00,
2013-08-02 02:28:00,70.4,67.6,30.01,ENE,68,0.0,0.0,91,0.00,,,0.00,WUHU216HW,2013-08-02 06:28:00,
2013-08-02 02:33:00,70.4,67.6,30.01,ENE,68,0.0,0.0,91,0.00,,,0.00,WUHU216HW,2013-08-02 06:33:00,
2013-08-02 02:39:00,70.2,67.4,30.01,North,0,0.0,0.0,91,0.00,,,0.00,WUHU216HW,2013-08-02 06:39:00,
2013-08-02 02:43:00,70.2,67.4,30.02,NE,45,0.0,0.0,91,0.00,,,0.00,WUHU216HW,2013-08-02 06:43:00,
2013-08-02 02:49:00,70.0,67.0,30.02,South,180,0.0,0.0,90,0.00,,,0.00,WUHU216HW,2013-08-02 06:49:00,
2013-08-02 02:54:00,69.8,66.8,30.02,SSW,203,0.0,0.0,90,0.00,,,0.00,WUHU216HW,2013-08-02 06:54:00,
2013-08-02 02:59:00,69.7,66.6,30.02,SSW,203,0.0,0.0,90,0.00,,,0.00,WUHU216HW,2013-08-02 06:59:00,
2013-08-02 03:04:00,69.5,66.7,30.02,SW,225,0.0,0.0,91,0.00,,,0.00,WUHU216HW,2013-08-02 07:04:00,
2013-08-02 03:09:00,69.5,66.7,30.02,West,270,0.0,0.0,91,0.00,,,0.00,WUHU216HW,2013-08-02 07:09:00,
2013-08-02 03:14:00,69.5,66.7,30.02,West,270,0.0,0.0,91,0.00,,,0.00,WUHU216HW,2013-08-02 07:14:00,
2013-08-02 03:19:00,69.5,66.7,30.02,West,270,0.0,0.0,91,0.00,,,0.00,WUHU216HW,2013-08-02 07:19:00,
2013-08-02 03:24:00,69.7,66.9,30.02,WNW,293,0.0,0.0,91,0.00,,,0.00,WUHU216HW,2013-08-02 07:24:00,
2013-08-02 03:29:00,69.8,67.1,30.02,NNE,23,0.0,0.0,91,0.00,,,0.00,WUHU216HW,2013-08-02 07:29:00,
2013-08-02 03:34:00,69.8,67.1,30.02,NNE,23,0.0,0.0,91,0.00,,,0.00,WUHU216HW,2013-08-02 07:34:00,
2013-08-02 03:39:00,70.2,67.4,30.02,NNE,23,0.0,0.0,91,0.00,,,0.00,WUHU216HW,2013-08-02 07:39:00,
2013-08-02 03:44:00,70.4,67.6,30.02,NNW,338,0.0,0.0,91,0.00,,,0.00,WUHU216HW,2013-08-02 07:44:00,
2013-08-02 03:49:00,70.4,67.6,30.02,North,0,0.0,0.0,91,0.00,,,0.00,WUHU216HW,2013-08-02 07:49:00,
2013-08-02 03:54:00,70.6,67.8,30.02,North,0,0.0,0.0,91,0.00,,,0.00,WUHU216HW,2013-08-02 07:54:00,
2013-08-02 03:59:00,70.6,67.8,30.02,NNW,338,0.0,0.0,91,0.00,,,0.00,WUHU216HW,2013-08-02 07:59:00,
2013-08-02 04:04:00,70.6,67.8,30.02,NNW,338,0.0,0.0,91,0.00,,,0.00,WUHU216HW,2013-08-02 08:04:00,
2013-08-02 04:09:00,70.7,68.3,30.02,North,0,0.0,0.0,92,0.00,,,0.00,WUHU216HW,2013-08-02 08:09:00,
2013-08-02 04:15:00,70.7,68.3,30.02,NNE,23,0.0,0.0,92,0.00,,,0.00,WUHU216HW,2013-08-02 08:15:00,
2013-08-02 04:20:00,70.7,68.3,30.02,WNW,293,0.0,0.0,92,0.00,,,0.00,WUHU216HW,2013-08-02 08:20:00,
2013-08-02 04:25:00,70.7,68.3,30.02,North,0,0.0,0.0,92,0.00,,,0.00,WUHU216HW,2013-08-02 08:25:00,
2013-08-02 04:30:00,70.7,68.3,30.02,NNW,338,0.0,0.0,92,0.00,,,0.00,WUHU216HW,2013-08-02 08:30:00,
2013-08-02 04:35:00,70.7,68.3,30.02,NNE,23,0.0,0.0,92,0.00,,,0.00,WUHU216HW,2013-08-02 08:35:00,
2013-08-02 04:40:00,70.7,68.3,30.02,North,0,0.0,0.0,92,0.00,,,0.00,WUHU216HW,2013-08-02 08:40:00,
2013-08-02 04:45:00,70.7,68.3,30.02,WNW,293,0.0,0.0,92,0.00,,,0.00,WUHU216HW,2013-08-02 08:45:00,
2013-08-02 04:50:00,70.7,68.3,30.02,WNW,293,0.0,0.0,92,0.00,,,0.00,WUHU216HW,2013-08-02 08:50:00,
2013-08-02 04:55:00,70.6,68.1,30.03,WNW,293,0.0,0.0,92,0.00,,,0.00,WUHU216HW,2013-08-02 08:55:00,
2013-08-02 05:00:00,70.6,68.1,30.03,North,0,0.0,0.0,92,0.00,,,0.00,WUHU216HW,2013-08-02 09:00:00,
2013-08-02 05:05:00,70.4,68.0,30.03,North,0,0.0,0.0,92,0.00,,,0.00,WUHU216HW,2013-08-02 09:05:00,
2013-08-02 05:10:00,70.4,68.0,30.03,NNE,23,0.0,0.0,92,0.00,,,0.00,WUHU216HW,2013-08-02 09:10:00,
2013-08-02 05:15:00,70.2,67.8,30.03,NNE,23,0.0,0.0,92,0.00,,,0.00,WUHU216HW,2013-08-02 09:15:00,
2013-08-02 05:20:00,70.2,67.8,30.03,NNE,23,0.0,0.0,92,0.00,,,0.00,WUHU216HW,2013-08-02 09:20:00,
2013-08-02 05:25:00,70.2,67.8,30.03,NE,45,0.0,0.0,92,0.00,,,0.00,WUHU216HW,2013-08-02 09:25:00,
2013-08-02 05:30:00,70.2,67.8,30.03,North,0,0.0,0.0,92,0.00,,,0.00,WUHU216HW,2013-08-02 09:30:00,
2013-08-02 05:35:00,70.2,67.8,30.04,North,0,0.0,0.0,92,0.00,,,0.00,WUHU216HW,2013-08-02 09:35:00,
2013-08-02 05:40:00,70.0,67.6,30.04,NNW,338,0.0,0.0,92,0.00,,,0.00,WUHU216HW,2013-08-02 09:40:00,
2013-08-02 05:45:00,69.8,67.7,30.03,North,0,0.0,0.0,93,0.00,,,0.00,WUHU216HW,2013-08-02 09:45:00,
2013-08-02 05:51:00,69.8,67.7,30.04,North,0,0.0,0.0,93,0.00,,,0.00,WUHU216HW,2013-08-02 09:51:00,
2013-08-02 05:56:00,69.8,67.4,30.04,NE,45,0.0,0.0,92,0.00,,,0.00,WUHU216HW,2013-08-02 09:56:00,
2013-08-02 06:01:00,69.7,67.2,30.04,WSW,248,0.0,0.0,92,0.00,,,0.00,WUHU216HW,2013-08-02 10:01:00,
2013-08-02 06:06:00,69.5,67.3,30.05,NNW,338,0.0,0.0,93,0.00,,,0.00,WUHU216HW,2013-08-02 10:06:00,
2013-08-02 06:11:00,69.5,67.3,30.05,NNW,338,0.0,0.0,93,0.00,,,0.00,WUHU216HW,2013-08-02 10:11:00,
2013-08-02 06:16:00,69.5,67.3,30.05,NNW,338,0.0,0.0,93,0.00,,,0.00,WUHU216HW,2013-08-02 10:16:00,
2013-08-02 06:21:00,69.3,67.1,30.05,North,0,0.0,0.0,93,0.00,,,0.00,WUHU216HW,2013-08-02 10:21:00,
2013-08-02 06:26:00,69.1,66.7,30.05,NNW,338,0.0,0.0,92,0.00,,,0.00,WUHU216HW,2013-08-02 10:26:00,
2013-08-02 06:31:00,68.9,66.5,30.05,North,0,0.0,0.0,92,0.00,,,0.00,WUHU216HW,2013-08-02 10:31:00,
2013-08-02 06:37:00,68.8,66.3,30.05,North,0,0.0,0.0,92,0.00,,,0.00,WUHU216HW,2013-08-02 10:37:00,
2013-08-02 06:42:00,68.8,66.3,30.05,North,0,0.0,0.0,92,0.00,,,0.00,WUHU216HW,2013-08-02 10:42:00,
2013-08-02 06:47:00,68.6,66.2,30.05,North,0,0.0,0.0,92,0.00,,,0.00,WUHU216HW,2013-08-02 10:47:00,
2013-08-02 06:52:00,68.6,66.2,30.05,NNE,23,0.0,0.0,92,0.00,,,0.00,WUHU216HW,2013-08-02 10:52:00,
2013-08-02 06:57:00,68.6,66.2,30.06,NNW,338,0.0,0.0,92,0.00,,,0.00,WUHU216HW,2013-08-02 10:57:00,
2013-08-02 07:02:00,68.4,66.0,30.06,North,0,0.0,0.0,92,0.00,,,0.00,WUHU216HW,2013-08-02 11:02:00,
2013-08-02 07:07:00,68.4,66.0,30.05,NW,315,0.0,0.0,92,0.00,,,0.00,WUHU216HW,2013-08-02 11:07:00,
2013-08-02 07:12:00,68.4,66.0,30.06,NNE,23,0.0,0.0,92,0.00,,,0.00,WUHU216HW,2013-08-02 11:12:00,
2013-08-02 07:17:00,68.4,66.0,30.06,North,0,0.0,0.0,92,0.00,,,0.00,WUHU216HW,2013-08-02 11:17:00,
2013-08-02 07:22:00,68.6,66.2,30.06,NNE,23,0.0,0.0,92,0.00,,,0.00,WUHU216HW,2013-08-02 11:22:00,
2013-08-02 07:27:00,68.6,66.2,30.06,North,0,0.0,0.0,92,0.00,,,0.00,WUHU216HW,2013-08-02 11:27:00,
2013-08-02 07:32:00,68.8,66.3,30.06,NNE,23,0.0,0.0,92,0.00,,,0.00,WUHU216HW,2013-08-02 11:32:00,
2013-08-02 07:37:00,68.8,66.3,30.07,North,0,0.0,0.0,92,0.00,,,0.00,WUHU216HW,2013-08-02 11:37:00,
2013-08-02 07:42:00,69.1,66.7,30.07,WNW,293,0.0,0.0,92,0.00,,,0.00,WUHU216HW,2013-08-02 11:42:00,
2013-08-02 07:47:00,69.3,66.9,30.07,North,0,0.0,0.0,92,0.00,,,0.00,WUHU216HW,2013-08-02 11:47:00,
2013-08-02 07:52:00,69.5,67.1,30.08,WSW,248,0.0,0.0,92,0.00,,,0.00,WUHU216HW,2013-08-02 11:52:00,
2013-08-02 07:57:00,69.8,67.4,30.07,ENE,68,0.0,0.0,92,0.00,,,0.00,WUHU216HW,2013-08-02 11:57:00,
2013-08-02 08:02:00,69.8,67.4,30.08,NE,45,0.0,0.0,92,0.00,,,0.00,WUHU216HW,2013-08-02 12:02:00,
2013-08-02 08:07:00,70.0,67.2,30.08,NNE,23,0.0,0.0,91,0.00,,,0.00,WUHU216HW,2013-08-02 12:07:00,
2013-08-02 08:12:00,70.2,67.4,30.08,NNE,23,0.0,0.0,91,0.00,,,0.00,WUHU216HW,2013-08-02 12:12:00,
2013-08-02 08:17:00,70.6,67.5,30.08,WNW,293,0.0,0.0,90,0.00,,,0.00,WUHU216HW,2013-08-02 12:17:00,
2013-08-02 08:22:00,70.9,67.9,30.08,North,0,0.0,0.0,90,0.00,,,0.00,WUHU216HW,2013-08-02 12:22:00,
2013-08-02 08:28:00,72.4,68.9,30.08,North,0,0.0,0.0,89,0.00,,,0.00,WUHU216HW,2013-08-02 12:28:00,
2013-08-02 08:33:00,74.2,70.7,30.08,North,0,0.0,0.0,89,0.00,,,0.00,WUHU216HW,2013-08-02 12:33:00,
2013-08-02 08:38:00,76.3,72.2,30.09,NNE,23,0.0,0.0,87,0.00,,,0.00,WUHU216HW,2013-08-02 12:38:00,
2013-08-02 08:43:00,77.4,72.5,30.09,NE,45,0.0,0.0,85,0.00,,,0.00,WUHU216HW,2013-08-02 12:43:00,
2013-08-02 08:48:00,78.7,71.7,30.08,NE,45,0.0,0.0,79,0.00,,,0.00,WUHU216HW,2013-08-02 12:48:00,
2013-08-02 08:53:00,78.7,70.4,30.08,NE,45,0.0,0.0,76,0.00,,,0.00,WUHU216HW,2013-08-02 12:53:00,
2013-08-02 08:58:00,77.9,70.1,30.09,NNW,338,0.0,0.0,77,0.00,,,0.00,WUHU216HW,2013-08-02 12:58:00,
2013-08-02 09:03:00,77.8,71.1,30.09,NNE,23,0.0,0.0,80,0.00,,,0.00,WUHU216HW,2013-08-02 13:03:00,
2013-08-02 09:08:00,77.6,70.1,30.09,North,0,0.0,0.0,78,0.00,,,0.00,WUHU216HW,2013-08-02 13:08:00,
2013-08-02 09:13:00,77.8,70.8,30.09,NE,45,0.0,0.0,79,0.00,,,0.00,WUHU216HW,2013-08-02 13:13:00,
2013-08-02 09:18:00,77.9,70.1,30.10,NNE,23,0.0,0.0,77,0.00,,,0.00,WUHU216HW,2013-08-02 13:18:00,
2013-08-02 09:23:00,78.1,70.7,30.10,NNW,338,0.0,0.0,78,0.00,,,0.00,WUHU216HW,2013-08-02 13:23:00,
2013-08-02 09:28:00,78.5,70.7,30.10,NNE,23,0.0,0.0,77,0.00,,,0.00,WUHU216HW,2013-08-02 13:28:00,
2013-08-02 09:33:00,78.5,70.3,30.09,North,0,0.0,0.0,76,0.00,,,0.00,WUHU216HW,2013-08-02 13:33:00,
2013-08-02 09:38:00,78.7,70.8,30.10,NNE,23,0.0,0.0,77,0.00,,,0.00,WUHU216HW,2013-08-02 13:38:00,
2013-08-02 09:43:00,79.0,70.7,30.10,North,0,0.0,0.0,76,0.00,,,0.00,WUHU216HW,2013-08-02 13:43:00,
2013-08-02 09:48:00,79.6,70.6,30.10,NNW,338,0.0,0.0,74,0.00,,,0.00,WUHU216HW,2013-08-02 13:48:00,
2013-08-02 09:54:00,80.3,71.6,30.10,ESE,113,0.0,0.0,75,0.00,,,0.00,WUHU216HW,2013-08-02 13:54:00,
2013-08-02 09:59:00,81.0,71.9,30.10,North,0,0.0,0.0,74,0.00,,,0.00,WUHU216HW,2013-08-02 13:59:00,
2013-08-02 10:04:00,81.0,71.1,30.11,NE,45,0.0,0.0,72,0.00,,,0.00,WUHU216HW,2013-08-02 14:04:00,
2013-08-02 10:09:00,80.8,71.4,30.11,SE,135,0.0,0.0,73,0.00,,,0.00,WUHU216HW,2013-08-02 14:09:00,
2013-08-02 10:14:00,81.4,71.5,30.11,SE,135,0.0,0.0,72,0.00,,,0.00,WUHU216HW,2013-08-02 14:14:00,
2013-08-02 10:19:00,81.5,69.0,30.11,North,0,0.0,0.0,66,0.00,,,0.00,WUHU216HW,2013-08-02 14:19:00,
2013-08-02 10:24:00,81.7,70.6,30.11,East,90,0.0,0.0,69,0.00,,,0.00,WUHU216HW,2013-08-02 14:24:00,
2013-08-02 10:29:00,81.7,70.6,30.11,NNE,23,0.0,0.0,69,0.00,,,0.00,WUHU216HW,2013-08-02 14:29:00,
2013-08-02 10:34:00,82.3,72.3,30.12,SW,225,0.0,0.0,72,0.00,,,0.00,WUHU216HW,2013-08-02 14:34:00,
2013-08-02 10:39:00,83.2,71.9,30.11,East,90,0.0,0.0,69,0.00,,,0.00,WUHU216HW,2013-08-02 14:39:00,
2013-08-02 10:44:00,83.2,71.0,30.11,North,0,0.0,0.0,67,0.00,,,0.00,WUHU216HW,2013-08-02 14:44:00,
2013-08-02 10:49:00,82.8,70.7,30.12,NNE,23,0.4,0.4,67,0.00,,,0.00,WUHU216HW,2013-08-02 14:49:00,
2013-08-02 10:54:00,83.0,71.7,30.12,WSW,248,0.4,0.4,69,0.00,,,0.00,WUHU216HW,2013-08-02 14:54:00,
2013-08-02 10:59:00,82.8,70.7,30.12,ENE,68,0.4,2.0,67,0.00,,,0.00,WUHU216HW,2013-08-02 14:59:00,
2013-08-02 11:04:00,82.8,70.7,30.12,SE,135,1.8,2.7,67,0.00,,,0.00,WUHU216HW,2013-08-02 15:04:00,
2013-08-02 11:10:00,83.2,70.1,30.12,NNW,338,4.3,4.3,65,0.00,,,0.00,WUHU216HW,2013-08-02 15:10:00,
2013-08-02 11:15:00,83.2,70.6,30.12,North,0,1.7,4.3,66,0.00,,,0.00,WUHU216HW,2013-08-02 15:15:00,
2013-08-02 11:20:00,83.5,71.4,30.12,SSE,158,3.4,4.3,67,0.00,,,0.00,WUHU216HW,2013-08-02 15:20:00,
2013-08-02 11:25:00,84.1,72.4,30.12,North,0,0.4,3.4,68,0.00,,,0.00,WUHU216HW,2013-08-02 15:25:00,
2013-08-02 11:30:00,84.6,72.5,30.12,South,180,4.5,4.5,67,0.00,,,0.00,WUHU216HW,2013-08-02 15:30:00,
2013-08-02 11:35:00,85.1,73.0,30.12,East,90,2.5,4.5,67,0.00,,,0.00,WUHU216HW,2013-08-02 15:35:00,
2013-08-02 11:40:00,85.5,70.6,30.12,SE,131,3.0,4.5,61,0.00,,,0.00,WUHU216HW,2013-08-02 15:40:00,
2013-08-02 11:45:00,85.5,70.6,30.12,North,0,1.1,3.1,61,0.00,,,0.00,WUHU216HW,2013-08-02 15:45:00,
2013-08-02 11:50:00,85.7,73.0,30.12,South,180,2.5,2.5,66,0.00,,,0.00,WUHU216HW,2013-08-02 15:50:00,
2013-08-02 11:55:00,86.4,72.3,30.12,NNE,14,1.0,2.5,63,0.00,,,0.00,WUHU216HW,2013-08-02 15:55:00,
2013-08-02 12:00:00,86.6,70.6,30.12,NE,45,3.4,3.4,59,0.00,,,0.00,WUHU216HW,2013-08-02 16:00:00,
2013-08-02 12:06:00,86.0,71.0,30.12,ESE,113,0.2,3.4,61,0.00,,,0.00,WUHU216HW,2013-08-02 16:06:00,
2013-08-02 12:11:00,86.4,72.8,30.12,South,180,1.8,3.4,64,0.00,,,0.00,WUHU216HW,2013-08-02 16:11:00,
2013-08-02 12:16:00,87.1,73.4,30.12,ESE,113,0.7,1.8,64,0.00,,,0.00,WUHU216HW,2013-08-02 16:16:00,
2013-08-02 12:21:00,87.5,72.9,30.11,SSE,158,2.9,2.9,62,0.00,,,0.00,WUHU216HW,2013-08-02 16:21:00,
2013-08-02 12:26:00,87.5,72.9,30.11,SSE,158,5.6,5.6,62,0.00,,,0.00,WUHU216HW,2013-08-02 16:26:00,
2013-08-02 12:31:00,87.5,72.0,30.12,NE,45,1.1,5.6,60,0.00,,,0.00,WUHU216HW,2013-08-02 16:31:00,
2013-08-02 12:36:00,87.1,72.1,30.12,NNW,338,2.7,5.6,61,0.00,,,0.00,WUHU216HW,2013-08-02 16:36:00,
2013-08-02 12:41:00,86.8,71.7,30.11,SSW,203,1.1,2.7,61,0.00,,,0.00,WUHU216HW,2013-08-02 16:41:00,
2013-08-02 12:46:00,86.8,70.7,30.11,North,0,1.1,2.7,59,0.00,,,0.00,WUHU216HW,2013-08-02 16:46:00,
2013-08-02 12:51:00,86.6,72.0,30.11,North,350,0.6,1.1,62,0.00,,,0.00,WUHU216HW,2013-08-02 16:51:00,
2013-08-02 12:56:00,86.9,71.5,30.11,NE,45,1.8,1.8,60,0.00,,,0.00,WUHU216HW,2013-08-02 16:56:00,
2013-08-02 13:01:00,86.8,71.3,30.12,NE,45,1.1,1.8,60,0.00,,,0.00,WUHU216HW,2013-08-02 17:01:00,
2013-08-02 13:07:00,86.4,70.4,30.12,ESE,113,1.1,1.8,59,0.00,,,0.00,WUHU216HW,2013-08-02 17:07:00,
2013-08-02 13:12:00,87.1,71.1,30.12,SE,135,1.1,1.8,59,0.00,,,0.00,WUHU216HW,2013-08-02 17:12:00,
2013-08-02 13:17:00,87.5,72.5,30.11,ESE,113,2.5,2.5,61,0.00,,,0.00,WUHU216HW,2013-08-02 17:17:00,
2013-08-02 13:22:00,88.2,73.2,30.11,South,180,2.0,2.5,61,0.00,,,0.00,WUHU216HW,2013-08-02 17:22:00,
2013-08-02 13:27:00,88.2,71.1,30.11,ENE,57,1.4,2.5,57,0.00,,,0.00,WUHU216HW,2013-08-02 17:27:00,
2013-08-02 13:32:00,88.2,71.7,30.11,NE,45,1.1,2.0,58,0.00,,,0.00,WUHU216HW,2013-08-02 17:32:00,
2013-08-02 13:37:00,87.7,71.6,30.11,ESE,113,1.7,1.8,59,0.00,,,0.00,WUHU216HW,2013-08-02 17:37:00,
2013-08-02 13:42:00,87.7,72.6,30.11,ESE,102,0.6,1.8,61,0.00,,,0.00,WUHU216HW,2013-08-02 17:42:00,
2013-08-02 13:47:00,88.2,73.2,30.11,South,176,2.0,3.6,61,0.00,,,0.00,WUHU216HW,2013-08-02 17:47:00,
2013-08-02 13:52:00,88.9,73.4,30.11,South,180,4.0,4.0,60,0.00,,,0.00,WUHU216HW,2013-08-02 17:52:00,
2013-08-02 13:57:00,90.0,74.4,30.11,SSW,203,1.8,4.0,60,0.00,,,0.00,WUHU216HW,2013-08-02 17:57:00,
2013-08-02 14:02:00,90.9,74.6,30.11,SE,136,4.1,4.5,59,0.00,,,0.00,WUHU216HW,2013-08-02 18:02:00,
2013-08-02 14:07:00,91.6,75.8,30.11,South,180,4.7,4.7,60,0.00,,,0.00,WUHU216HW,2013-08-02 18:07:00,
2013-08-02 14:13:00,92.2,75.8,30.11,South,180,4.9,4.9,59,0.00,,,0.00,WUHU216HW,2013-08-02 18:13:00,
2013-08-02 14:17:00,92.9,76.5,30.11,SSE,158,3.6,4.9,59,0.00,,,0.00,WUHU216HW,2013-08-02 18:17:00,
2013-08-02 14:23:00,92.5,73.9,30.10,SSE,158,3.8,4.9,55,0.00,,,0.00,WUHU216HW,2013-08-02 18:23:00,
2013-08-02 14:28:00,92.7,74.6,30.10,SW,218,2.2,3.8,56,0.00,,,0.00,WUHU216HW,2013-08-02 18:28:00,
2013-08-02 14:33:00,92.9,72.6,30.10,ENE,68,2.5,3.8,52,0.00,,,0.00,WUHU216HW,2013-08-02 18:33:00,
2013-08-02 14:38:00,91.8,72.2,30.10,SSE,158,2.5,2.5,53,0.00,,,0.00,WUHU216HW,2013-08-02 18:38:00,
2013-08-02 14:43:00,92.2,74.7,30.10,South,170,2.3,2.7,57,0.00,,,0.00,WUHU216HW,2013-08-02 18:43:00,
2013-08-02 14:48:00,92.5,74.5,30.10,SSE,158,3.8,3.8,56,0.00,,,0.00,WUHU216HW,2013-08-02 18:48:00,
2013-08-02 14:53:00,92.3,73.8,30.10,ESE,113,1.8,3.8,55,0.00,,,0.00,WUHU216HW,2013-08-02 18:53:00,
2013-08-02 14:58:00,91.6,72.0,30.10,ENE,68,3.4,3.8,53,0.00,,,0.00,WUHU216HW,2013-08-02 18:58:00,
2013-08-02 15:03:00,90.7,71.7,30.10,SE,135,1.3,3.4,54,0.00,,,0.00,WUHU216HW,2013-08-02 19:03:00,
2013-08-02 15:08:00,90.0,71.7,30.09,NNW,330,1.2,3.4,55,0.00,,,0.00,WUHU216HW,2013-08-02 19:08:00,
2013-08-02 15:13:00,90.4,73.0,30.09,South,180,5.4,5.4,57,0.00,,,0.00,WUHU216HW,2013-08-02 19:13:00,
2013-08-02 15:19:00,91.1,72.5,30.09,SSE,158,1.8,5.4,55,0.00,,,0.00,WUHU216HW,2013-08-02 19:19:00,
2013-08-02 15:24:00,91.6,74.2,30.09,SSW,203,1.6,5.4,57,0.00,,,0.00,WUHU216HW,2013-08-02 19:24:00,
2013-08-02 15:29:00,92.7,75.3,30.09,South,180,3.1,3.1,57,0.00,,,0.00,WUHU216HW,2013-08-02 19:29:00,
2013-08-02 15:34:00,92.9,75.4,30.09,South,180,4.0,4.0,57,0.00,,,0.00,WUHU216HW,2013-08-02 19:34:00,
2013-08-02 15:39:00,93.1,75.5,30.09,SW,225,2.2,4.0,57,0.00,,,0.00,WUHU216HW,2013-08-02 19:39:00,
2013-08-02 15:44:00,93.1,75.0,30.09,SW,225,4.7,4.7,56,0.00,,,0.00,WUHU216HW,2013-08-02 19:44:00,
2013-08-02 15:49:00,92.9,74.3,30.09,SSE,158,1.3,4.7,55,0.00,,,0.00,WUHU216HW,2013-08-02 19:49:00,
2013-08-02 15:54:00,92.7,74.1,30.08,SW,225,1.1,4.7,55,0.00,,,0.00,WUHU216HW,2013-08-02 19:54:00,
2013-08-02 15:59:00,92.9,74.8,30.09,SSE,158,5.6,5.6,56,0.00,,,0.00,WUHU216HW,2013-08-02 19:59:00,
2013-08-02 16:04:00,92.7,74.1,30.08,SE,144,1.9,5.6,55,0.00,,,0.00,WUHU216HW,2013-08-02 20:04:00,
2013-08-02 16:09:00,92.9,73.7,30.08,SSW,204,2.2,5.6,54,0.00,,,0.00,WUHU216HW,2013-08-02 20:09:00,
2013-08-02 16:14:00,93.1,75.0,30.08,SE,135,2.9,2.9,56,0.00,,,0.00,WUHU216HW,2013-08-02 20:14:00,
2013-08-02 16:19:00,92.5,72.8,30.08,South,180,2.7,2.9,53,0.00,,,0.00,WUHU216HW,2013-08-02 20:19:00,
2013-08-02 16:24:00,92.3,73.8,30.08,SSW,203,4.7,4.7,55,0.00,,,0.00,WUHU216HW,2013-08-02 20:24:00,
2013-08-02 16:29:00,92.5,74.5,30.08,NW,315,0.9,4.7,56,0.00,,,0.00,WUHU216HW,2013-08-02 20:29:00,
2013-08-02 16:35:00,92.9,74.8,30.08,South,180,2.7,4.7,56,0.00,,,0.00,WUHU216HW,2013-08-02 20:35:00,
2013-08-02 16:40:00,92.9,74.3,30.08,SSE,158,2.5,2.7,55,0.00,,,0.00,WUHU216HW,2013-08-02 20:40:00,
2013-08-02 16:45:00,92.9,74.3,30.08,SE,135,1.8,2.7,55,0.00,,,0.00,WUHU216HW,2013-08-02 20:45:00,
2013-08-02 16:50:00,92.3,73.2,30.08,SW,225,1.1,2.5,54,0.00,,,0.00,WUHU216HW,2013-08-02 20:50:00,
2013-08-02 16:55:00,91.8,72.2,30.07,WSW,248,0.0,1.8,53,0.00,,,0.00,WUHU216HW,2013-08-02 20:55:00,
2013-08-02 17:00:00,91.6,73.6,30.07,South,180,2.3,2.5,56,0.00,,,0.00,WUHU216HW,2013-08-02 21:00:00,
2013-08-02 17:05:00,91.8,73.8,30.07,SE,135,1.3,2.5,56,0.00,,,0.00,WUHU216HW,2013-08-02 21:05:00,
2013-08-02 17:10:00,92.2,74.2,30.07,SW,225,0.9,2.2,56,0.00,,,0.00,WUHU216HW,2013-08-02 21:10:00,
2013-08-02 17:15:00,92.3,73.8,30.07,SW,225,1.1,1.3,55,0.00,,,0.00,WUHU216HW,2013-08-02 21:15:00,
2013-08-02 17:20:00,92.3,73.8,30.07,SSE,158,1.1,1.1,55,0.00,,,0.00,WUHU216HW,2013-08-02 21:20:00,
2013-08-02 17:25:00,91.8,73.3,30.07,SW,225,1.1,1.1,55,0.00,,,0.00,WUHU216HW,2013-08-02 21:25:00,
2013-08-02 17:30:00,91.6,73.1,30.07,SE,135,1.1,1.1,55,0.00,,,0.00,WUHU216HW,2013-08-02 21:30:00,
2013-08-02 17:35:00,91.3,72.7,30.07,NW,315,0.3,1.1,55,0.00,,,0.00,WUHU216HW,2013-08-02 21:35:00,
2013-08-02 17:40:00,90.7,72.8,30.07,East,90,1.3,1.3,56,0.00,,,0.00,WUHU216HW,2013-08-02 21:40:00,
2013-08-02 17:45:00,90.4,72.5,30.07,SE,135,0.4,1.3,56,0.00,,,0.00,WUHU216HW,2013-08-02 21:45:00,
2013-08-02 17:50:00,89.6,72.4,30.07,SSE,158,2.0,2.0,57,0.00,,,0.00,WUHU216HW,2013-08-02 21:50:00,
2013-08-02 17:55:00,89.5,72.7,30.07,South,191,0.7,2.0,58,0.00,,,0.00,WUHU216HW,2013-08-02 21:55:00,
2013-08-02 18:00:00,88.9,71.7,30.07,NNW,328,0.5,2.0,57,0.00,,,0.00,WUHU216HW,2013-08-02 22:00:00,
2013-08-02 18:06:00,87.7,71.6,30.07,ENE,59,1.3,1.8,59,0.00,,,0.00,WUHU216HW,2013-08-02 22:06:00,
2013-08-02 18:11:00,87.1,71.6,30.07,SE,135,1.1,1.8,60,0.00,,,0.00,WUHU216HW,2013-08-02 22:11:00,
2013-08-02 18:16:00,87.3,71.8,30.07,South,180,0.4,1.1,60,0.00,,,0.00,WUHU216HW,2013-08-02 22:16:00,
2013-08-02 18:21:00,87.5,72.0,30.07,ESE,113,0.7,1.1,60,0.00,,,0.00,WUHU216HW,2013-08-02 22:21:00,
2013-08-02 18:26:00,86.8,71.3,30.07,ESE,111,1.0,1.1,60,0.00,,,0.00,WUHU216HW,2013-08-02 22:26:00,
2013-08-02 18:31:00,86.6,72.0,30.06,SSW,203,2.7,2.7,62,0.00,,,0.00,WUHU216HW,2013-08-02 22:31:00,
2013-08-02 18:36:00,86.8,72.2,30.07,SSE,161,1.2,2.7,62,0.00,,,0.00,WUHU216HW,2013-08-02 22:36:00,
2013-08-02 18:41:00,86.8,72.2,30.06,SE,135,1.8,2.7,62,0.00,,,0.00,WUHU216HW,2013-08-02 22:41:00,
2013-08-02 18:46:00,86.8,72.2,30.06,SE,135,0.4,1.8,62,0.00,,,0.00,WUHU216HW,2013-08-02 22:46:00,
2013-08-02 18:51:00,86.8,72.2,30.06,ESE,113,1.6,1.8,62,0.00,,,0.00,WUHU216HW,2013-08-02 22:51:00,
2013-08-02 18:56:00,86.4,72.3,30.06,ESE,113,2.9,2.9,63,0.00,,,0.00,WUHU216HW,2013-08-02 22:56:00,
2013-08-02 19:01:00,86.4,72.3,30.06,SSE,154,1.1,2.9,63,0.00,,,0.00,WUHU216HW,2013-08-02 23:01:00,
2013-08-02 19:06:00,86.2,71.6,30.06,ESE,113,0.7,2.0,62,0.00,,,0.00,WUHU216HW,2013-08-02 23:06:00,
2013-08-02 19:12:00,85.5,71.5,30.06,SE,135,1.1,1.1,63,0.00,,,0.00,WUHU216HW,2013-08-02 23:12:00,
2013-08-02 19:17:00,87.1,73.4,30.07,South,180,1.1,1.1,64,0.00,,,0.00,WUHU216HW,2013-08-02 23:17:00,
2013-08-02 19:22:00,87.5,73.4,30.07,South,180,1.1,1.1,63,0.00,,,0.00,WUHU216HW,2013-08-02 23:22:00,
2013-08-02 19:27:00,86.6,72.5,30.07,ESE,113,0.9,1.1,63,0.00,,,0.00,WUHU216HW,2013-08-02 23:27:00,
2013-08-02 19:32:00,84.8,71.7,30.07,SE,135,0.4,0.9,65,0.00,,,0.00,WUHU216HW,2013-08-02 23:32:00,
2013-08-02 19:37:00,84.1,71.5,30.07,ESE,119,0.5,0.9,66,0.00,,,0.00,WUHU216HW,2013-08-02 23:37:00,
2013-08-02 19:42:00,83.5,71.4,30.07,SE,135,0.4,0.9,67,0.00,,,0.00,WUHU216HW,2013-08-02 23:42:00,
2013-08-02 19:47:00,82.6,70.5,30.07,East,101,0.6,0.9,67,0.00,,,0.00,WUHU216HW,2013-08-02 23:47:00,
2013-08-02 19:52:00,82.6,70.5,30.07,East,90,0.4,0.9,67,0.00,,,0.00,WUHU216HW,2013-08-02 23:52:00,
2013-08-02 19:57:00,82.6,70.5,30.07,East,90,0.4,0.4,67,0.00,,,0.00,WUHU216HW,2013-08-02 23:57:00,
2013-08-02 20:02:00,81.5,70.4,30.07,ESE,113,0.7,0.7,69,0.00,,,0.00,WUHU216HW,2013-08-03 00:02:00,
2013-08-02 20:07:00,81.0,70.4,30.07,SE,135,0.7,0.7,70,0.00,,,0.00,WUHU216HW,2013-08-03 00:07:00,
2013-08-02 20:12:00,81.0,70.7,30.07,ESE,113,0.2,0.7,71,0.00,,,0.00,WUHU216HW,2013-08-03 00:12:00,
2013-08-02 20:17:00,80.6,70.4,30.08,SE,135,0.0,0.7,71,0.00,,,0.00,WUHU216HW,2013-08-03 00:17:00,
2013-08-02 20:22:00,80.3,70.0,30.07,South,180,0.0,0.2,71,0.00,,,0.00,WUHU216HW,2013-08-03 00:22:00,
2013-08-02 20:28:00,79.9,70.1,30.08,East,90,0.2,1.3,72,0.00,,,0.00,WUHU216HW,2013-08-03 00:28:00,
2013-08-02 20:33:00,79.4,69.9,30.08,SE,135,0.2,1.3,73,0.00,,,0.00,WUHU216HW,2013-08-03 00:33:00,
2013-08-02 20:38:00,79.0,70.0,30.08,SE,135,0.2,0.2,74,0.00,,,0.00,WUHU216HW,2013-08-03 00:38:00,
2013-08-02 20:43:00,78.7,69.7,30.08,SE,135,0.0,0.2,74,0.00,,,0.00,WUHU216HW,2013-08-03 00:43:00,
2013-08-02 20:48:00,78.5,69.8,30.08,SE,135,0.0,0.0,75,0.00,,,0.00,WUHU216HW,2013-08-03 00:48:00,
2013-08-02 20:53:00,78.1,69.5,30.08,ESE,113,0.2,0.2,75,0.00,,,0.00,WUHU216HW,2013-08-03 00:53:00,
2013-08-02 20:58:00,77.9,69.8,30.08,ESE,113,0.2,0.2,76,0.00,,,0.00,WUHU216HW,2013-08-03 00:58:00,
2013-08-02 21:03:00,77.8,69.6,30.09,ESE,113,0.0,0.2,76,0.00,,,0.00,WUHU216HW,2013-08-03 01:03:00,
2013-08-02 21:08:00,77.6,69.8,30.09,East,90,0.0,0.0,77,0.00,,,0.00,WUHU216HW,2013-08-03 01:08:00,
2013-08-02 21:13:00,77.4,69.6,30.09,ESE,113,0.0,0.0,77,0.00,,,0.00,WUHU216HW,2013-08-03 01:13:00,
2013-08-02 21:18:00,77.2,69.9,30.09,ESE,113,0.0,0.0,78,0.00,,,0.00,WUHU216HW,2013-08-03 01:18:00,
2013-08-02 21:23:00,77.0,69.7,30.09,ESE,113,0.0,0.0,78,0.00,,,0.00,WUHU216HW,2013-08-03 01:23:00,
2013-08-02 21:28:00,76.9,69.5,30.09,SE,135,0.0,0.0,78,0.00,,,0.00,WUHU216HW,2013-08-03 01:28:00,
2013-08-02 21:33:00,76.7,69.7,30.10,SSE,158,0.0,0.0,79,0.00,,,0.00,WUHU216HW,2013-08-03 01:33:00,
2013-08-02 21:38:00,76.3,69.4,30.10,ESE,113,0.0,0.0,79,0.00,,,0.00,WUHU216HW,2013-08-03 01:38:00,
2013-08-02 21:44:00,76.1,69.6,30.10,ESE,113,0.0,0.0,80,0.00,,,0.00,WUHU216HW,2013-08-03 01:44:00,
2013-08-02 21:49:00,76.1,69.6,30.10,ESE,113,0.0,0.0,80,0.00,,,0.00,WUHU216HW,2013-08-03 01:49:00,
2013-08-02 21:54:00,76.0,69.4,30.10,ESE,113,0.0,0.0,80,0.00,,,0.00,WUHU216HW,2013-08-03 01:54:00,
2013-08-02 21:59:00,76.0,69.4,30.10,SE,135,0.0,0.0,80,0.00,,,0.00,WUHU216HW,2013-08-03 01:59:00,
2013-08-02 22:04:00,75.8,69.6,30.10,SE,135,0.0,0.0,81,0.00,,,0.00,WUHU216HW,2013-08-03 02:04:00,
2013-08-02 22:09:00,75.6,69.4,30.10,South,180,0.0,0.0,81,0.00,,,0.00,WUHU216HW,2013-08-03 02:09:00,
2013-08-02 22:14:00,75.2,69.1,30.10,South,180,1.1,1.1,81,0.00,,,0.00,WUHU216HW,2013-08-03 02:14:00,
2013-08-02 22:19:00,75.2,69.5,30.10,South,180,0.0,1.1,82,0.00,,,0.00,WUHU216HW,2013-08-03 02:19:00,
2013-08-02 22:24:00,75.1,69.3,30.10,SSW,203,0.0,1.1,82,0.00,,,0.00,WUHU216HW,2013-08-03 02:24:00,
2013-08-02 22:29:00,74.9,69.1,30.10,South,180,0.0,0.0,82,0.00,,,0.00,WUHU216HW,2013-08-03 02:29:00,
2013-08-02 22:34:00,74.9,69.4,30.11,SSE,158,0.0,0.0,83,0.00,,,0.00,WUHU216HW,2013-08-03 02:34:00,
2013-08-02 22:39:00,74.9,69.4,30.11,South,180,0.0,0.0,83,0.00,,,0.00,WUHU216HW,2013-08-03 02:39:00,
2013-08-02 22:45:00,74.9,69.4,30.11,SW,225,0.0,0.0,83,0.00,,,0.00,WUHU216HW,2013-08-03 02:45:00,
2013-08-02 22:50:00,74.7,69.2,30.11,SW,225,0.0,0.0,83,0.00,,,0.00,WUHU216HW,2013-08-03 02:50:00,
2013-08-02 22:55:00,74.7,69.2,30.11,SW,225,0.0,0.0,83,0.00,,,0.00,WUHU216HW,2013-08-03 02:55:00,
2013-08-02 23:00:00,74.7,69.6,30.11,South,180,0.0,0.0,84,0.00,,,0.00,WUHU216HW,2013-08-03 03:00:00,
2013-08-02 23:05:00,74.5,69.4,30.11,WSW,248,0.0,0.0,84,0.00,,,0.00,WUHU216HW,2013-08-03 03:05:00,
2013-08-02 23:10:00,74.5,69.4,30.11,WSW,248,0.0,0.0,84,0.00,,,0.00,WUHU216HW,2013-08-03 03:10:00,
2013-08-02 23:15:00,74.9,70.1,30.11,NNW,338,0.0,0.0,85,0.00,,,0.00,WUHU216HW,2013-08-03 03:15:00,
2013-08-02 23:20:00,74.7,69.6,30.11,NNW,338,0.0,0.0,84,0.00,,,0.00,WUHU216HW,2013-08-03 03:20:00,
2013-08-02 23:25:00,74.7,69.9,30.11,NNW,338,0.0,0.0,85,0.00,,,0.00,WUHU216HW,2013-08-03 03:25:00,
2013-08-02 23:30:00,74.5,69.8,30.11,NNW,338,0.0,0.0,85,0.00,,,0.00,WUHU216HW,2013-08-03 03:30:00,
2013-08-02 23:35:00,74.2,69.4,30.11,NNW,338,0.0,0.0,85,0.00,,,0.00,WUHU216HW,2013-08-03 03:35:00,
2013-08-02 23:40:00,74.0,69.2,30.11,NNW,338,0.0,0.0,85,0.00,,,0.00,WUHU216HW,2013-08-03 03:40:00,
2013-08-02 23:45:00,73.8,69.4,30.11,NNW,338,0.0,0.0,86,0.00,,,0.00,WUHU216HW,2013-08-03 03:45:00,
2013-08-02 23:50:00,73.8,69.4,30.11,NNW,338,0.0,0.0,86,0.00,,,0.00,WUHU216HW,2013-08-03 03:50:00,
2013-08-02 23:55:00,73.8,69.4,30.12,NNW,338,0.0,0.0,86,0.00,,,0.00,WUHU216HW,2013-08-03 03:55:00,